Regional Weather Roundup
Issued by NWS

Home | Current Version | Previous Version | Text Only | Print | Product List | Glossary On
Versions: 1 2 3 4 5 6 7 8 9 10 11 12 13 14 15 16 17 18 19 20 21 22 23 24 25 26 27 28 29 30 31 32 33 34 35 36 37 38 39 40 41 42 43 44 45 46 47 48 49 50
161
ASUS46 KPQR 291810
RWROR

OREGON REGIONAL WEATHER ROUNDUP
NATIONAL WEATHER SERVICE PORTLAND OR
1100 AM PDT MON AUG 29 2016

NOTE: "FAIR" INDICATES FEW OR NO CLOUDS BELOW 12,000 FEET WITH
NO SIGNIFICANT WEATHER AND/OR OBSTRUCTIONS TO VISIBILITY.

ORZ001>013-291900-
NORTHWEST OREGON


CITY           SKY/WX    TMP DP  RH WIND       PRES   REMARKS
ASTORIA        CLOUDY    65  55  70 CALM      30.07S
6HR MIN TEMP:  51; 6HR MAX TEMP:  65;

NEWPORT        CLOUDY    55  50  82 SW10      30.14R
PORTLAND       SUNNY     69  53  56 N5        30.05F
6HR MIN TEMP:  59; 6HR MAX TEMP:  70;

VANCOUVER WA   SUNNY     68  54  60 SW5       30.05F
6HR MIN TEMP:  55; 6HR MAX TEMP:  68;

SCAPPOOSE      SUNNY     69  54  58 S6        30.04F
6HR MIN TEMP:  52; 6HR MAX TEMP:  69;

HILLSBORO      SUNNY     69  54  58 VRB3      30.05F
6HR MIN TEMP:  51; 6HR MAX TEMP:  69;

AURORA         SUNNY     66  53  63 CALM      30.06F
6HR MIN TEMP:  53; 6HR MAX TEMP:  67;

MCMINNVILLE    SUNNY     67  54  63 SW7       30.07F
6HR MIN TEMP:  52; 6HR MAX TEMP:  68;

SALEM          SUNNY     68  53  58 W5        30.05F
6HR MIN TEMP:  53; 6HR MAX TEMP:  68;

CORVALLIS        N/A     64  54  68 SW5       30.09S
EUGENE         MOSUNNY   66  51  58 VRB5      30.07F
6HR MIN TEMP:  52; 6HR MAX TEMP:  66;

$$

ORZ021-028-291900-
SOUTHWEST OREGON


CITY           SKY/WX    TMP DP  RH WIND       PRES   REMARKS
NORTH BEND     CLOUDY    59  54  82 SE7       30.13S
6HR MIN TEMP:  54; 6HR MAX TEMP:  59; 6HR PCP:  0.01;

BROOKINGS      CLOUDY    55  50  83 SE5       30.14S
ROSEBURG       SUNNY     69  53  56 CALM      30.07F
6HR MIN TEMP:  55; 6HR MAX TEMP:  69;

SEXTON SUMMIT  MOSUNNY   70  44  39 CALM      30.15R
6HR MIN TEMP:  59; 6HR MAX TEMP:  71;

MEDFORD        MOSUNNY   75  46  35 CALM      30.05F
6HR MIN TEMP:  58; 6HR MAX TEMP:  76;

$$

ORZ014>016-041-291900-
COLUMBIA GORGE


CITY           SKY/WX    TMP DP  RH WIND       PRES   REMARKS
TROUTDALE      SUNNY     71  54  54 SW3       30.04F
6HR MIN TEMP:  54; 6HR MAX TEMP:  71;

THE DALLES     SUNNY     76  52  43 VRB5      29.98F
6HR MIN TEMP:  59; 6HR MAX TEMP:  76;

$$

ORZ029>031-041-044-049-050-061>064-502-503-505>511-291900-
EASTERN OREGON


CITY           SKY/WX    TMP DP  RH WIND       PRES   REMARKS
REDMOND        SUNNY     78  43  28 SW6       30.09F
6HR MIN TEMP:  54; 6HR MAX TEMP:  78;

BEND           SUNNY     75  48  38 VRB5      30.10F
PRINEVILLE     SUNNY     77  46  33 CALM      30.11S
KLAMATH FALLS  PTSUNNY   71  39  31 SE9       30.18S
6HR MIN TEMP:  44; 6HR MAX TEMP:  72;

LAKEVIEW       PTSUNNY   72  32  23 S8        30.25S
HERMISTON      SUNNY     80  46  30 VRB3      29.99S
6HR MIN TEMP:  53; 6HR MAX TEMP:  80;

PENDLETON      SUNNY     80  39  23 VRB3      30.00F
6HR MIN TEMP:  59; 6HR MAX TEMP:  81;

JOHN DAY       SUNNY     78  43  28 NW3       30.12F
MEACHAM        SUNNY     80  36  20 CALM      30.10F
6HR MIN TEMP:  44; 6HR MAX TEMP:  80;

LA GRANDE      MOSUNNY   75  43  31 NE5       30.06F
6HR MIN TEMP:  52; 6HR MAX TEMP:  75;

BAKER CITY     MOSUNNY   84  46  26 E12       30.09F
6HR MIN TEMP:  45; 6HR MAX TEMP:  84;

BURNS          SUNNY     75  30  19 S8        30.19F
6HR MIN TEMP:  41; 6HR MAX TEMP:  75;

ROME             N/A     85  18   8 SW12      30.17F
6HR MIN TEMP:  53; 6HR MAX TEMP:  85;

ONTARIO        MOSUNNY   78  52  40 CALM      30.10F
6HR MIN TEMP:  55; 6HR MAX TEMP:  78;

$$




USA.gov is the U.S. government's official web portal to all federal, state and local government web resources and services.